Location: Catstown
(52.4386°N, 7.2633°W)
Time: 18:47:11
(UTC+00:00)

Cosmos 2251 Rocket - Visible Passes

Search period start: 26 January 2021 00:00
Search period end: 05 February 2021 00:00
Orbit: 765 x 792 km, 74.0° (Epoch: 25 January)

Date Brightness Start Highest point End Pass type
(mag) Time Alt. Az. Time Alt. Az. Time Alt. Az.
26 Jan 5.5 19:18:46 10° N 19:20:33 13° NNE 19:20:33 13° NNE visible
26 Jan 5.9 20:59:58 10° NNW 21:01:03 16° NNW 21:01:03 16° NNW visible
27 Jan 5.6 18:45:30 10° NNE 18:46:55 11° NNE 18:47:22 11° NNE visible
27 Jan 5.5 20:26:05 10° NNW 20:27:52 19° N 20:27:52 19° N visible
27 Jan 6.5 22:08:18 10° NNW 22:08:21 10° NNW 22:08:21 10° NNW visible
28 Jan 5.2 19:52:15 10° N 19:54:42 21° NNE 19:54:42 21° NNE visible
28 Jan 6.0 21:34:11 10° NNW 21:35:12 16° NNW 21:35:12 16° NNW visible
29 Jan 5.1 19:18:28 10° N 19:21:36 19° NNE 19:21:36 19° NNE visible
29 Jan 5.5 21:00:09 10° NNW 21:02:06 23° NNW 21:02:06 23° NNW visible
30 Jan 5.2 18:44:47 10° N 18:47:54 15° NE 18:48:32 15° NE visible
30 Jan 4.9 20:26:11 10° NNW 20:29:02 30° N 20:29:02 30° N visible
30 Jan 6.4 22:08:55 10° NW 22:09:32 13° NW 22:09:32 13° NW visible
31 Jan 5.4 18:11:17 10° N 18:13:25 12° NNE 18:15:31 10° NE visible
31 Jan 4.4 19:52:16 10° NNW 19:56:01 34° NNE 19:56:01 34° NNE visible
31 Jan 5.8 21:34:38 10° NW 21:36:31 21° NW 21:36:31 21° NW visible
01 Feb 4.4 19:18:24 10° NNW 19:23:05 29° NE 19:23:05 29° NE visible
01 Feb 4.9 21:00:28 10° NNW 21:03:35 35° NW 21:03:35 35° NW visible
02 Feb 4.8 18:44:35 10° N 18:48:46 22° NE 18:50:13 20° ENE visible
02 Feb 3.9 20:26:24 10° NNW 20:30:44 59° NNW 20:30:44 59° NNW visible
02 Feb 6.3 22:10:04 10° WNW 22:11:14 13° WNW 22:11:14 13° WNW visible
03 Feb 5.1 18:10:51 10° N 18:14:22 17° NE 18:17:27 11° ENE visible
03 Feb 3.4 19:52:24 10° NNW 19:57:46 65° ENE 19:57:57 64° ENE visible
03 Feb 5.7 21:35:22 10° NW 21:38:29 23° W 21:38:29 23° W visible
04 Feb 3.8 19:18:27 10° NNW 19:23:38 46° NE 19:25:20 35° ESE visible
04 Feb 4.9 21:00:59 10° NW 21:05:49 35° WSW 21:05:52 35° WSW visible
